Location: White Ridge parking lot
(35.4984°N, 106.8413°W)
Time: 21:01:24
(UTC-07:00)

XW-2B - Pass Details

Date: 26 October 2019
Orbit: 507 x 528 km, 97.5° (Epoch: 13 November)

Event Time Altitude Azimuth Distance (km) Brightness Sun altitude
Rises 06:41:57 0° 19° (NNE) 2,613 ? -9.1°
Reaches altitude 10° 06:44:07 10° 26° (NNE) 1,725 ? -8.6°
Maximum altitude 06:47:40 43° 99° (E) 727 ? -7.9°
Drops below altitude 10° 06:51:12 10° 172° (S) 1,719 ? -7.2°
Sets 06:53:21 0° 179° (S) 2,603 ? -6.8°
